Weather in Orlovo

Ukraine / Kherson District     47°27′46″N   33°13′33″E
temp.,
°C
wind,
m/s
gust,
m/s
humid.,
%
clouds,
%
prec.,
mm/h
press.,
hPa
HPBL,
m
17 june, thu
thu1700:00+18nnw346895 0.0 101255
03:00+17n4874100 0.0 1012131
06:00+17nne3891100 0.6 1011260
09:00+17n81696100 14.2 1011629
12:00+21ne91487100 1.1 1011855
15:00+23ne9127681 2.3 10111126
18:00+22ene91587100 1.8 10111203
21:00+19ene81393100 3.4 1012665
18 june, fri
fri1800:00+18ene51095100 0.3 1013406
03:00+18ene589799 1.4 1013418
06:00+17ene5119542 0.1 1014583
09:00+21e81075100 0.2 10151063
12:00+24e8106179 0.1 10161629
15:00+26e810527 0.1 10162114
18:00+23ese6967100 0.5 10161234
21:00+19ene5108684 1.7 1018257
19 june, sat
sat1900:00+17ene5109669 2.0 1018282
03:00+16ene489895 5.0 1017225
06:00+17ne379678 0.8 1018244
09:00+21ene567818 0.8 1018666
12:00+25ene566310 0.0 10171241
15:00+27e56550 0.0 10161516
18:00+26e46615 0.0 1015942
21:00+22ene41081100 0.4 1015252
20 june, sun
sun2000:00+20ne5118976 1.6 1015247
03:00+19ne51091100 4.7 1015304
06:00+18ne61287100 0.3 1014386
09:00+19ene61278100 1.2 1014573
12:00+24e81057100 0.0 10131088
15:00+26e895320 0.0 10131406
18:00+26e69575 0.0 10121500
21:00+21ene34762 0.0 101250
21 june, mon
mon2100:00+19ene36861 0.0 1012104
03:00+19ne359373 0.0 101181
06:00+19ne3587100 0.0 1011112
09:00+23ene4571100 0.0 1011406
12:00+27e4462100 0.0 1011910
15:00+27ene576580 0.0 10101051
18:00+27e5955100 0.0 1011627
21:00+22ene4871100 0.0 1010134